Temp
99 97 89 78 78 78 78 78 77 77 77 77 78 78 78 78 77 77 77 77 77 78 78 79 79 79 79 79 78 77 77 77
99 99 97 78 78 78 79 78 77 77 77 77 78 78 78 77 77 77 77 77 77 77 77 78 78 78 77 78 78 77 77 77
99 96 96 80 78 78 78 78 77 77 77 77 77 77 77 77 77 77 77 77 77 77 77 77 77 75 76 76 76 76 76 77
99 96 94 91 82 77 77 77 77 77 77 76 76 76 77 77 77 77 76 76 76 75 75 75 76 76 76 76 75 76 75 76
98 98 94 91 91 87 86 77 77 77 76 76 76 76 76 76 76 76 75 75 75 74 74 74 75 75 75 75 75 75 75 75
98 97 96 95 93 90 90 87 78 77 77 76 77 76 77 84 85 83 80 75 74 74 74 73 73 74 74 75 75 75 75 83
96 97 96 92 91 91 93 89 85 87 87 86 85 84 84 84 84 82 79 74 73 73 73 73 73 74 74 82 82 76 82 84
100 98 96 89 88 89 91 90 89 89 88 87 84 83 83 84 83 83 83 82 80 77 81 81 81 81 82 79 78 77 84 85
99 98 96 91 85 85 91 89 89 89 87 86 85 81 80 81 80 80 82 80 79 81 79 79 81 78 79 80 81 78 76 82
96 97 95 90 84 84 84 88 87 86 86 86 85 83 82 82 80 81 79 79 77 78 79 79 80 79 78 79 81 80 77 82
94 94 93 88 84 84 83 83 83 83 86 84 85 84 80 81 79 81 78 77 77 77 79 79 78 78 79 79 79 78 80 80
94 92 89 85 84 82 82 82 82 85 84 85 85 81 80 79 79 76 78 77 77 73 75 75 77 77 78 79 77 79 80 79
92 89 86 86 84 81 81 82 84 85 84 84 84 83 80 78 77 75 75 73 71 70 71 73 75 77 77 78 74 73 76 76
90 87 82 83 83 80 77 82 82 81 82 84 83 83 81 79 78 74 72 69 71 69 70 72 74 75 75 71 69 70 74 75
86 82 81 82 81 79 81 81 83 83 83 84 83 82 80 80 78 74 70 72 67 68 70 72 73 73 73 70 69 69 73 77
81 79 79 79 77 80 80 81 81 80 82 83 83 81 80 79 76 71 70 66 66 66 66 70 70 68 67 69 65 66 71 74
78 78 77 77 76 79 82 82 83 82 84 84 84 80 79 79 74 71 69 69 68 67 70 70 67 66 67 68 65 69 65 68
77 77 77 77 77 79 80 80 79 80 80 80 80 80 78 77 75 71 71 69 71 73 73 68 68 67 65 68 70 69 66 69
78 79 78 77 77 78 78 79 77 80 79 82 80 82 79 77 75 74 71 71 74 71 68 69 72 71 68 66 70 75 76 77
MSLP
1007.19 1007.90 1008.61 1009.64 1010.41 1010.91 1011.33 1011.83 1012.28 1012.67 1012.99 1013.29 1013.54 1013.71 1013.88 1014.06 1014.16 1014.30 1014.48 1014.44 1014.51 1014.48 1014.48 1014.50 1014.45 1014.48 1014.48 1014.48 1014.52 1014.69 1014.67 1014.92
1006.96 1007.44 1008.03 1009.46 1010.10 1010.61 1011.01 1011.46 1012.00 1012.46 1012.84 1013.11 1013.34 1013.50 1013.66 1013.80 1013.94 1014.02 1014.13 1014.26 1014.25 1014.29 1014.27 1014.26 1014.22 1014.24 1014.37 1014.42 1014.39 1014.60 1014.62 1014.61
1006.86 1007.54 1007.82 1009.24 1009.92 1010.27 1010.71 1011.16 1011.69 1012.11 1012.54 1012.83 1013.08 1013.32 1013.50 1013.62 1013.71 1013.76 1013.83 1014.01 1014.07 1014.10 1014.06 1014.00 1014.02 1014.11 1014.24 1014.39 1014.39 1014.50 1014.39 1014.41
1006.90 1007.50 1007.86 1008.59 1009.65 1010.38 1010.71 1011.14 1011.65 1012.05 1012.40 1012.65 1012.94 1013.11 1013.29 1013.46 1013.52 1013.56 1013.59 1013.79 1013.93 1014.00 1014.06 1014.02 1013.91 1013.90 1014.04 1014.21 1014.22 1014.12 1014.16 1014.35
1006.56 1006.92 1007.66 1008.15 1008.73 1009.54 1010.21 1010.99 1011.40 1011.99 1012.30 1012.61 1012.84 1013.04 1013.14 1013.26 1013.30 1013.40 1013.50 1013.54 1013.70 1013.85 1013.91 1013.96 1013.92 1013.84 1013.79 1013.84 1013.92 1013.98 1014.04 1014.27
1005.81 1006.56 1007.05 1007.62 1008.16 1008.68 1009.10 1009.96 1011.18 1011.63 1012.08 1012.42 1012.68 1012.86 1012.97 1012.54 1012.13 1012.39 1012.51 1013.03 1013.31 1013.45 1013.58 1013.67 1013.69 1013.60 1013.52 1013.49 1013.54 1013.63 1013.80 1013.25
1005.25 1005.90 1006.45 1007.25 1007.70 1008.24 1008.43 1009.12 1010.38 1010.59 1010.95 1011.29 1011.58 1011.70 1011.90 1011.90 1011.85 1012.16 1012.38 1012.78 1013.00 1013.02 1013.10 1013.15 1013.16 1013.14 1013.23 1012.32 1011.95 1012.80 1012.85 1012.47
1003.76 1004.67 1005.74 1006.87 1007.44 1007.92 1008.13 1008.69 1009.28 1009.76 1010.14 1010.59 1010.97 1011.41 1011.59 1011.62 1011.60 1011.71 1011.61 1011.65 1011.83 1012.10 1012.10 1011.89 1011.91 1012.02 1011.70 1011.79 1011.83 1011.92 1011.50 1011.66
1002.93 1003.39 1004.73 1006.16 1007.17 1007.52 1007.54 1008.44 1008.73 1009.14 1009.69 1010.20 1010.55 1011.15 1011.47 1011.45 1011.42 1011.54 1011.22 1011.32 1011.56 1011.60 1011.64 1011.76 1011.41 1011.58 1011.65 1011.74 1011.58 1011.71 1011.93 1011.21
1002.34 1002.76 1003.85 1005.46 1006.64 1007.09 1007.43 1007.88 1008.46 1008.99 1009.52 1009.74 1010.21 1010.57 1010.99 1010.89 1010.97 1011.04 1011.11 1011.29 1011.52 1011.41 1011.31 1011.33 1011.19 1011.34 1011.33 1011.34 1011.17 1011.09 1011.62 1011.14
1001.90 1002.37 1003.46 1004.71 1006.12 1006.54 1006.71 1007.51 1008.38 1008.97 1009.00 1009.60 1009.64 1009.93 1010.62 1010.67 1010.72 1010.77 1010.99 1011.18 1011.21 1011.09 1011.04 1010.93 1011.08 1011.09 1010.90 1010.87 1010.86 1011.07 1010.88 1010.78
1001.66 1002.13 1002.85 1004.39 1005.45 1005.91 1006.25 1007.05 1007.95 1008.36 1008.92 1009.04 1009.05 1009.78 1010.24 1010.51 1010.48 1010.82 1010.70 1010.77 1010.90 1011.14 1011.25 1011.26 1011.12 1011.02 1010.98 1010.73 1010.91 1010.78 1010.81 1010.88
1001.35 1001.79 1002.70 1003.79 1004.57 1005.38 1005.72 1006.50 1007.10 1007.82 1008.64 1008.69 1008.74 1009.25 1009.81 1010.11 1010.31 1010.50 1010.58 1010.75 1010.95 1011.12 1011.17 1010.94 1010.76 1010.39 1010.41 1010.26 1010.65 1011.08 1010.91 1010.99
1000.97 1001.67 1002.76 1003.52 1004.16 1005.08 1005.61 1005.81 1006.77 1007.68 1008.29 1008.40 1008.42 1008.79 1009.12 1009.45 1009.67 1009.98 1010.25 1010.49 1010.50 1010.90 1010.93 1010.79 1010.26 1010.38 1009.99 1010.62 1011.12 1011.14 1010.94 1010.93
1001.11 1001.95 1002.74 1003.47 1004.26 1005.19 1005.70 1006.32 1006.91 1007.40 1007.89 1008.03 1008.14 1008.37 1008.61 1008.85 1009.12 1009.56 1009.97 1010.11 1010.55 1010.76 1010.57 1010.37 1010.15 1010.29 1010.29 1010.55 1010.85 1010.88 1010.63 1010.51
1001.36 1001.98 1002.66 1003.57 1004.53 1004.87 1005.41 1005.78 1006.37 1006.88 1007.30 1007.53 1007.79 1008.09 1008.37 1008.40 1008.81 1009.34 1009.60 1010.10 1010.31 1010.32 1010.26 1010.09 1010.17 1010.36 1010.48 1010.62 1010.77 1010.78 1010.62 1010.60
1001.51 1002.10 1002.90 1003.67 1004.52 1004.81 1005.20 1005.55 1005.95 1006.42 1006.69 1007.04 1007.24 1007.85 1008.07 1008.08 1008.58 1009.02 1009.25 1009.48 1009.85 1010.09 1009.87 1009.91 1010.13 1010.16 1010.23 1010.29 1010.11 1009.80 1009.95 1010.34
1001.48 1002.18 1002.94 1003.67 1004.31 1004.76 1005.26 1006.01 1006.53 1006.87 1007.08 1007.01 1007.10 1007.36 1007.76 1008.00 1008.26 1008.70 1008.93 1009.28 1009.32 1009.21 1008.90 1009.53 1009.76 1009.79 1009.76 1009.79 1009.70 1009.14 1008.86 1007.94
1001.42 1002.17 1002.84 1003.55 1004.25 1005.01 1005.59 1005.75 1006.04 1005.96 1006.08 1006.34 1006.87 1007.10 1007.46 1007.88 1008.06 1008.23 1008.68 1008.85 1008.70 1008.95 1009.26 1009.24 1009.13 1008.99 1009.28 1009.14 1009.22 1008.86 1008.54 1007.61
Wind_Speed
17 18 17 23 21 21 20 18 17 16 15 15 15 13 13 12 11 11 13 13 14 14 14 14 14 13 13 11 9 10 10 10
15 17 17 21 22 21 20 19 18 16 15 15 14 14 13 13 13 13 13 14 15 14 16 17 16 14 12 10 10 10 11 11
13 15 14 19 21 20 20 19 18 17 16 15 14 13 13 13 14 14 12 12 13 13 14 15 15 14 11 10 11 10 11 11
12 14 14 15 19 17 17 17 16 16 15 14 14 14 13 13 12 11 11 10 10 11 13 15 15 14 12 11 11 11 11 12
14 15 15 14 17 17 16 15 15 15 14 13 13 13 12 13 12 12 8 12 11 9 11 12 14 15 14 11 11 12 12 13
14 15 15 15 14 16 16 15 14 16 14 12 13 14 11 11 11 13 10 4 8 10 11 12 13 13 14 14 14 14 14 10
17 16 15 14 15 14 12 13 13 13 12 11 11 11 9 11 8 7 8 6 10 12 12 12 13 13 12 10 8 17 9 13
14 16 17 15 15 15 12 9 8 8 7 7 10 8 8 7 6 7 6 6 7 8 7 9 9 10 12 6 5 5 9 13
14 15 18 18 15 15 10 10 9 8 7 6 7 9 8 6 7 7 6 6 6 7 6 7 6 5 8 10 11 9 9 11
16 14 18 18 17 14 13 10 9 8 7 7 7 8 8 7 6 7 6 7 7 8 8 7 7 7 8 9 11 10 11 13
14 13 16 18 18 17 14 12 9 8 8 7 7 7 8 8 7 8 7 8 8 8 8 7 6 7 7 8 8 9 11 9
13 12 17 18 19 18 17 14 10 8 7 7 6 7 9 8 9 9 8 8 8 6 10 8 8 8 8 8 10 9 9 9
13 12 15 16 20 19 15 13 10 8 8 7 6 6 9 10 11 9 8 7 7 6 7 9 8 8 8 8 5 7 7 6
12 12 15 17 19 18 13 12 10 9 8 6 5 6 8 10 11 9 7 6 5 6 7 8 8 7 7 4 6 7 7 6
7 11 13 14 16 15 12 9 8 7 7 6 6 7 8 8 10 9 6 6 4 6 7 8 7 7 6 6 6 6 7 6
7 11 14 15 15 13 11 10 8 8 7 6 5 7 8 8 9 7 5 7 6 5 6 9 5 8 5 5 4 4 6 7
9 11 14 16 16 12 9 7 5 5 5 4 3 4 7 8 7 7 7 6 6 7 9 9 9 6 5 7 6 6 6 5
12 14 15 17 16 12 10 7 5 4 4 6 6 5 5 6 8 5 7 8 9 10 6 7 9 9 7 7 9 4 4 5
12 15 17 17 15 11 10 7 5 4 4 1 3 2 4 5 5 6 8 8 9 5 8 8 7 7 7 7 6 6 5 1
Wind_Direction
180 182 178 179 187 187 187 189 191 194 196 202 207 214 224 233 240 244 249 249 250 254 257 257 262 251 258 254 240 244 245 250
186 187 182 180 189 191 189 190 193 195 200 205 210 220 229 236 243 248 253 258 261 266 264 260 259 254 258 262 266 254 244 243
190 195 194 181 193 193 192 191 193 195 200 205 211 221 231 238 247 248 252 260 270 277 279 277 274 266 255 261 264 263 253 242
205 200 200 189 196 198 195 194 195 199 204 206 214 223 231 242 252 252 254 262 270 278 282 280 277 268 263 256 252 260 251 241
211 204 207 205 192 200 198 197 196 202 206 212 218 226 233 243 249 248 248 235 244 272 277 279 277 269 263 259 258 256 253 243
221 214 208 202 204 201 201 191 194 201 209 213 223 228 236 245 243 227 229 298 284 277 273 272 268 264 266 260 251 243 244 243
237 221 213 213 205 204 202 196 202 204 211 215 226 237 226 246 255 289 304 286 277 279 279 270 265 266 260 253 235 217 230 239
248 220 213 202 203 206 201 188 198 204 206 219 232 235 242 259 243 242 258 243 250 222 265 243 229 227 239 227 246 273 235 229
257 240 210 204 204 200 198 196 200 201 204 214 217 223 236 232 234 253 269 271 262 258 270 258 260 259 266 261 260 225 239 252
263 237 211 198 200 195 197 193 204 204 199 220 221 215 238 248 246 256 256 261 258 259 252 247 256 258 258 243 244 241 231 230
258 239 210 198 199 192 187 189 188 197 202 218 220 222 216 244 242 255 250 245 250 257 252 251 238 266 254 256 241 242 235 221
265 232 207 197 196 192 186 176 188 186 217 215 215 211 227 232 237 253 258 258 259 262 255 245 246 237 252 239 245 222 226 217
260 224 192 196 192 188 177 174 180 183 207 216 210 225 226 235 243 248 250 245 246 236 240 240 233 234 247 245 223 230 231 209
249 212 193 200 188 182 169 167 170 175 212 214 213 234 236 237 238 238 239 239 235 240 227 232 239 248 234 243 231 220 215 210
219 188 195 188 181 172 159 156 171 174 205 217 221 239 243 238 242 235 238 241 220 228 232 234 229 241 246 231 218 210 206 211
181 179 184 178 163 165 161 169 175 196 203 216 230 239 252 250 245 236 214 209 218 240 233 235 237 239 227 219 193 198 200 205
165 165 164 162 162 165 164 175 189 199 200 237 252 251 253 250 231 224 225 213 208 217 224 225 224 225 221 207 200 193 181 179
159 156 157 157 160 162 151 151 160 151 213 214 199 216 202 227 225 211 206 207 204 229 216 223 222 217 213 200 210 221 199 189
152 155 154 154 154 153 166 165 175 226 250 74 248 205 232 227 224 216 206 210 213 191 225 218 218 220 204 193 188 227 270 163